Weather History for KBMG - September, 2012

Change the Weather History Date:

Sunday, September 23, 2012

  Actual Average Record
Temperature  
Mean Temperature 49 °F 63 °F  
Max Temperature 63 °F 75 °F 94 °F (2010)
Min Temperature 35 °F 50 °F 35 °F (2012)
Degree Days  
Heating Degree Days 16 4  
Month to date heating degree days 78 39  
Since 1 July heating degree days 78 46  
Cooling Degree Days 0 2  
Month to date cooling degree days 87 86  
Year to date cooling degree days 1294 903  
Moisture  
Dew Point 38 °F    
Average Humidity 70    
Maximum Humidity 100    
Minimum Humidity 39    
Precipitation  
Precipitation 0.00 in 0.10 in 0.79 in (2005)
Month to date precipitation 6.03 2.48  
Year to date precipitation 22.33 35.67  
Sea Level Pressure  
Sea Level Pressure 30.23 in    
Wind  
Wind Speed 2 mph (WNW)    
Max Wind Speed 13 mph    
Max Gust Speed 17 mph    
Visibility 10 miles    
Events      
T = Trace of Precipitation, MM = Missing Value Source: NWS Daily Summary

Daily Weather History Graph

Daily Weather History Graph

Search for Another Location

Airport or City:

Trip Planner

Search our weather history database for the weather conditions in past years. The results will help you decide how hot, cold, wet, or windy it might be!

Date:

Astronomy

Sep. 23, 2012 Rise Set
Actual Time 7:35 AM EDT 7:41 PM EDT
Civil Twilight 7:08 AM EDT 8:07 PM EDT
Nautical Twilight 6:37 AM EDT 8:38 PM EDT
Astronomical Twilight 6:05 AM EDT 9:10 PM EDT
Moon 3:39 PM EDT (9/23) 12:49 AM EDT (9/23)
Length of Visible Light 12h 58m
Length of Day
12h 05m
First Quarter, 60% of the Moon is Illuminated
Sep 23
First Quarter
Sep 29
Full
Oct 8
Last Quarter
Oct 15
New
Oct 21
First Quarter

Hourly Weather History & Observations

Time (EDT) Temp. Dew Point Humidity Pressure Visibility Wind Dir Wind Speed Gust Speed Precip Events Conditions
12:53 AM 39.9 °F 37.9 °F 93% 30.18 in 10.0 mi Calm Calm - N/A   Clear
1:53 AM 39.0 °F 37.0 °F 93% 30.18 in 10.0 mi Calm Calm - N/A   Clear
2:53 AM 37.9 °F 36.0 °F 93% 30.19 in 10.0 mi Calm Calm - N/A   Clear
3:53 AM 37.0 °F 35.1 °F 93% 30.19 in 10.0 mi Calm Calm - N/A   Clear
4:53 AM 37.9 °F 36.0 °F 93% 30.20 in 10.0 mi Calm Calm - N/A   Clear
5:53 AM 36.0 °F 35.1 °F 97% 30.21 in 10.0 mi Calm Calm - N/A   Clear
6:53 AM 37.0 °F 35.1 °F 93% 30.23 in 10.0 mi Calm Calm - N/A   Clear
7:53 AM 36.0 °F 35.1 °F 97% 30.25 in 10.0 mi Calm Calm - N/A   Clear
8:53 AM 44.1 °F 39.9 °F 85% 30.26 in 10.0 mi Calm Calm - N/A   Clear
9:53 AM 51.1 °F 42.1 °F 71% 30.27 in 10.0 mi Variable 5.8 mph - N/A   Clear
10:53 AM 55.0 °F 41.0 °F 59% 30.27 in 10.0 mi Variable 3.5 mph - N/A   Clear
11:53 AM 57.0 °F 39.9 °F 53% 30.27 in 10.0 mi Variable 5.8 mph - N/A   Scattered Clouds
12:53 PM 59.0 °F 37.9 °F 46% 30.26 in 10.0 mi Variable 4.6 mph - N/A   Scattered Clouds
1:53 PM 57.9 °F 37.0 °F 46% 30.26 in 10.0 mi NW 8.1 mph - N/A   Scattered Clouds
2:53 PM 59.0 °F 37.9 °F 46% 30.25 in 10.0 mi NW 5.8 mph - N/A   Overcast
3:53 PM 61.0 °F 35.1 °F 38% 30.24 in 10.0 mi WNW 6.9 mph - N/A   Scattered Clouds
4:53 PM 62.1 °F 37.0 °F 39% 30.23 in 10.0 mi Variable 6.9 mph - N/A   Mostly Cloudy
5:53 PM 61.0 °F 35.1 °F 38% 30.22 in 10.0 mi West 4.6 mph - N/A   Partly Cloudy
6:53 PM 59.0 °F 36.0 °F 42% 30.22 in 10.0 mi Calm Calm - N/A   Clear
7:53 PM 48.9 °F 42.1 °F 77% 30.23 in 10.0 mi Calm Calm - N/A   Clear
8:53 PM 46.0 °F 41.0 °F 83% 30.24 in 10.0 mi Calm Calm - N/A   Clear
9:53 PM 43.0 °F 39.9 °F 89% 30.25 in 10.0 mi Calm Calm - N/A   Clear
10:53 PM 41.0 °F 39.0 °F 93% 30.25 in 10.0 mi Calm Calm - N/A   Clear
11:53 PM 41.0 °F 39.0 °F 93% 30.25 in 10.0 mi Calm Calm - N/A   Clear